sat.trackr.live / text

‹ back to catalog

STARLINK-36424

NORAD 67419 · 2026-005R

PAYLOAD ACTIVE UNKNOWN

§ Identity

Operator
Country
US
Launch date
2026-01-12
Launch site
AFETR
Launch vehicle
Mass (kg)
RCS (m²)

Purposes: comms

External: N2YO · Heavens-Above · Gunter

§ Orbital elements

Epoch: 2026-09-19T22:02:51.817920Z

Period
94.27 min
Inclination
42.9984°
Eccentricity
0.0000530
Mean motion
15.27589045 rev/d
Perigee alt
482.7 km
Apogee alt
483.4 km
Semi-major
6,861.2 km
B*
6.8558e-4
RAAN
220.8747°
Arg perigee
281.6865°
Mean anomaly
78.3927°
Rev number
3,840

§ Raw data

STARLINK-364241 67419U 26005R   26262.91865530  .00018657  00000+0  68558-3 0  99962 67419  42.9984 220.8747 0000530 281.6865  78.3927 15.27589045 38406

JSON: /api/v1/satellites/67419 · /tle

For live sub-satellite position, see the globe view (requires WebGL).

§ Visibility from observer

Set your observer location to see the next 7 days of passes ≥ 10°. The values pass through the URL so the page stays shareable.

No JS? Fill the form by hand. The geolocation button needs JavaScript.